DW5254 Weather Reports


Display with metric or nautical units.
time (UTC)temp
F
wind
direction
speed
MPH
gust
MPH
rain 1hr
in
rain 24hr
in
rain mn
in
humidity
%
barometer
mb
20260905203058 90 263 0.0 3.0 0.00 0.04 0.04 67 1010.8
20260905201653 88 175 1.0 4.0 0.00 0.04 0.04 68 1010.9
20260905200113 87 118 2.0 7.0 0.00 0.04 0.04 68 1011.1
20260905194551 86 73 1.0 7.0 0.02 0.04 0.04 71 1011.1
20260905193049 85 126 3.0 11.0 0.04 0.04 0.04 72 1011.4
20260905191549 80 99 0.0 5.0 0.04 0.04 0.04 87 1011.6
20260905190053 79 37 2.0 5.0 0.04 0.04 0.04 84 1011.8
20260905184551 84 338 8.0 18.0 0.02 0.02 0.02 71 1012.0
20260905183047 95 342 1.0 5.0 0.00 0.00 0.00 56 1011.4
20260905181545 97 350 5.0 9.0 0.00 0.00 0.00 55 1011.4
20260905180105 97 312 0.0 6.0 0.00 0.00 0.00 54 1011.5
20260905174541 97 340 3.0 8.0 0.00 0.00 0.00 54 1011.7
20260905173059 97 334 5.0 10.0 0.00 0.00 0.00 55 1011.9
20260905171550 96 343 0.0 7.0 0.00 0.00 0.00 56 1012.0
20260905170038 96 324 2.0 5.0 0.00 0.00 0.00 56 1012.1
20260905164536 96 323 1.0 8.0 0.00 0.00 0.00 56 1012.4
20260905163033 95 274 2.0 7.0 0.00 0.00 0.00 58 1012.4
20260905161530 94 324 2.0 6.0 0.00 0.00 0.00 58 1012.4
20260905160047 94 298 3.0 9.0 0.00 0.00 0.00 60 1012.4
20260905154527 93 325 4.0 10.0 0.00 0.00 0.00 61 1012.4
20260905153027 93 323 4.0 10.0 0.00 0.00 0.00 62 1012.4
20260905151522 92 316 2.0 7.0 0.00 0.00 0.00 64 1012.5
20260905150018 91 314 5.0 9.0 0.00 0.00 0.00 64 1012.6
20260905144524 91 333 2.0 6.0 0.00 0.00 0.00 66 1012.6
20260905143013 89 314 1.0 4.0 0.00 0.00 0.00 68 1012.4
20260905141512 88 319 1.0 4.0 0.00 0.00 0.00 68 1012.5
20260905140014 86 333 1.0 3.0 0.00 0.00 0.00 71 1012.6
20260905134503 85 309 3.0 4.0 0.00 0.00 0.00 72 1012.8
20260905133007 85 320 1.0 3.0 0.00 0.00 0.00 70 1012.8
20260905131559 84 68 0.0 0.0 0.00 0.00 0.00 76 1012.9
20260905130055 80 68 0.0 0.0 0.00 0.00 0.00 82 1012.9
20260905124555 76 68 0.0 0.0 0.00 0.00 0.00 87 1012.8
20260905123051 76 67 0.0 0.0 0.00 0.00 0.00 87 1012.8
20260905121551 76 68 0.0 0.0 0.00 0.00 0.00 87 1012.7
20260905120058 75 67 0.0 0.0 0.00 0.00 0.00 88 1012.6
20260905114559 74 68 0.0 0.0 0.00 0.00 0.00 89 1012.5
20260905113055 74 68 0.0 0.0 0.00 0.00 0.00 89 1012.4
20260905111632 74 67 0.0 0.0 0.00 0.00 0.00 88 1012.3
20260905110043 74 68 0.0 0.0 0.00 0.00 0.00 88 1012.2
20260905104542 75 67 0.0 0.0 0.00 0.00 0.00 87 1012.2
20260905103140 75 68 0.0 0.0 0.00 0.00 0.00 87 1012.4
20260905101542 76 68 0.0 0.0 0.00 0.00 0.00 85 1012.3
20260905100038 75 68 0.0 0.0 0.00 0.00 0.00 86 1012.2
20260905094537 76 68 0.0 0.0 0.00 0.00 0.00 84 1012.1
20260905093040 76 68 0.0 0.0 0.00 0.00 0.00 85 1012.0
20260905091536 76 68 0.0 0.0 0.00 0.00 0.00 85 1011.8
20260905090036 76 68 0.0 0.0 0.00 0.00 0.00 86 1011.8
20260905084534 76 68 0.0 0.0 0.00 0.00 0.00 86 1011.8
20260905083033 76 68 0.0 0.0 0.00 0.00 0.00 86 1011.9
20260905081533 75 80 0.0 0.0 0.00 0.00 0.00 87 1012.0
20260905080034 75 80 0.0 0.0 0.00 0.00 0.00 87 1012.1
20260905074528 76 81 0.0 0.0 0.00 0.00 0.00 86 1012.2
20260905073035 77 80 0.0 0.0 0.00 0.00 0.00 84 1012.2
20260905071525 77 80 0.0 0.0 0.00 0.00 0.00 84 1012.1
20260905070043 77 80 0.0 0.0 0.00 0.00 0.00 84 1012.1
20260905064537 77 82 0.0 0.0 0.00 0.00 0.00 83 1012.1
20260905063021 78 82 0.0 0.0 0.00 0.00 0.00 83 1012.1
20260905061520 78 82 0.0 0.0 0.00 0.00 0.00 83 1012.4
20260905060022 78 82 0.0 0.0 0.00 0.00 0.00 82 1012.3
20260905054531 78 82 0.0 0.0 0.00 0.00 0.00 82 1012.2
20260905053016 79 82 0.0 0.0 0.00 0.00 0.00 80 1012.3
20260905051522 79 82 0.0 0.0 0.00 0.00 0.00 79 1012.4
20260905050012 79 82 0.0 0.0 0.00 0.00 0.00 80 1012.3
20260905044512 79 82 0.0 0.0 0.00 0.00 0.00 79 1012.3
20260905043011 79 82 0.0 0.0 0.00 0.00 0.00 79 1012.4
20260905041511 80 82 0.0 0.0 0.00 0.00 0.00 78 1012.6
20260905040016 81 82 0.0 0.0 0.00 0.00 0.00 75 1012.6
20260905034522 83 83 0.0 0.0 0.00 0.00 0.00 72 1012.6
20260905033014 83 83 0.0 0.0 0.00 0.00 0.00 72 1012.5
20260905031508 83 82 0.0 0.0 0.00 0.00 0.00 71 1012.5
20260905030007 84 82 0.0 0.0 0.00 0.00 0.00 71 1012.3
20260905024509 84 83 0.0 0.0 0.00 0.00 0.00 70 1012.3
20260905023006 84 83 0.0 1.0 0.00 0.00 0.00 71 1012.2
20260905021508 84 83 0.0 0.0 0.00 0.00 0.00 71 1012.1
20260905020010 84 83 0.0 0.0 0.00 0.00 0.00 71 1012.1
20260905014504 84 82 0.0 0.0 0.00 0.00 0.00 72 1011.9
20260905013003 85 83 0.0 0.0 0.00 0.00 0.00 72 1011.9
20260905011503 86 83 0.0 0.0 0.00 0.00 0.00 70 1011.7
20260905010005 86 83 0.0 0.0 0.00 0.00 0.00 70 1011.6
20260905004502 87 83 0.0 0.0 0.00 0.00 0.00 68 1011.5
20260905003006 89 83 0.0 0.0 0.00 0.00 0.00 64 1011.5
20260905001502 91 83 0.0 0.0 0.00 0.00 0.00 61 1011.4
20260905000001 92 83 0.0 0.0 0.00 0.00 0.00 59 1011.4
20260904234607 93 83 0.0 0.0 0.00 0.00 0.00 58 1011.3
20260904233100 95 132 0.0 3.0 0.00 0.00 0.00 56 1011.2
20260904231602 96 214 0.0 3.0 0.00 0.00 0.00 52 1011.0
20260904230059 97 358 0.0 2.0 0.00 0.00 0.00 50 1011.1
20260904224558 97 211 0.0 3.0 0.00 0.00 0.00 51 1011.1
20260904223059 97 70 0.0 9.0 0.00 0.00 0.00 51 1011.1
20260904221602 98 281 0.0 4.0 0.00 0.00 0.00 49 1011.1
20260904220107 98 246 1.0 7.0 0.00 0.00 0.00 49 1011.4
20260904214553 98 334 2.0 7.0 0.00 0.00 0.00 48 1011.5